Atlanta, GA

8:39 AM EST on December 14, 2019 (GMT -0500)
The Hartsfield Atlanta International

Weather History for KATL - October, 2019

Change the Weather History Date:

Thursday, October 3, 2019

  Actual Average Record
Temperature  
Mean Temperature 86 °F 67 °F  
Max Temperature 98 °F 77 °F 94 °F (1911)
Min Temperature 75 °F 58 °F 40 °F (1981)
Degree Days  
Heating Degree Days 0 1  
Month to date heating degree days 0 3  
Since 1 July heating degree days 0 14  
Cooling Degree Days 22 4  
Month to date cooling degree days 61 12  
Year to date cooling degree days 2538 1817  
Growing Degree Days 36 (Base 50)    
Moisture  
Dew Point 64 °F    
Average Humidity 50    
Maximum Humidity 79    
Minimum Humidity 30    
Precipitation  
Precipitation 0.00 in 0.13 in 2.16 in (1898)
Month to date precipitation 0.00 0.42  
Year to date precipitation 32.33 38.72  
Sea Level Pressure  
Sea Level Pressure 30.00 in    
Wind  
Wind Speed 4 mph ()    
Max Wind Speed 12 mph    
Max Gust Speed 19 mph    
Visibility 9.9 miles    
Events      
T = Trace of Precipitation, MM = Missing Value Source: Averaged Metar Reports

Daily Weather History Graph

Daily Weather History Graph

Search for Another Location

Airport or City:

Astronomy

Oct. 03, 2019 Rise Set
Actual Time 7:33 AM EDT 7:19 PM EDT
Civil Twilight 7:08 AM EDT 7:44 PM EDT
Nautical Twilight 6:39 AM EDT 8:13 PM EDT
Astronomical Twilight 6:10 AM EDT 8:42 PM EDT
Moon 12:49 PM EDT (10/3) 11:12 PM EDT (10/3)
Length of Visible Light 12h 36m
Length of Day
11h 46m
Waxing Crescent, 29% of the Moon is Illuminated
Oct 3
Waxing Crescent
Oct 5
First Quarter
Oct 13
Full
Oct 21
Last Quarter
Oct 27
New

Hourly Weather History & Observations

Time (EDT) Temp. Heat Index Dew Point Humidity Pressure Visibility Wind Dir Wind Speed Gust Speed Precip Events Conditions
12:52 AM 82.0 °F 84.5 °F 66.9 °F 60% 29.98 in 10.0 mi Calm Calm - N/A   Partly Cloudy
1:52 AM 80.1 °F 82.3 °F 66.9 °F 64% 29.98 in 10.0 mi Calm Calm - N/A   Partly Cloudy
2:52 AM 78.1 °F - 68.0 °F 71% 29.99 in 10.0 mi SSW 3.5 mph - N/A   Partly Cloudy
3:52 AM 77.0 °F - 68.0 °F 74% 29.99 in 10.0 mi Calm Calm - N/A   Partly Cloudy
4:52 AM 77.0 °F - 68.0 °F 74% 30.00 in 10.0 mi Calm Calm - N/A   Partly Cloudy
5:52 AM 75.9 °F - 68.0 °F 76% 30.01 in 10.0 mi WSW 4.6 mph - N/A   Partly Cloudy
6:52 AM 75.9 °F - 68.0 °F 76% 30.03 in 10.0 mi WSW 4.6 mph - N/A   Partly Cloudy
7:52 AM 77.0 °F - 68.0 °F 74% 30.03 in 9.0 mi NW 4.6 mph - N/A   Partly Cloudy
8:52 AM 80.1 °F 82.7 °F 68.0 °F 67% 30.04 in 9.0 mi NW 6.9 mph - N/A   Clear
9:52 AM 84.9 °F 87.6 °F 66.9 °F 55% 30.05 in 10.0 mi NW 9.2 mph - N/A   Partly Cloudy
10:52 AM 88.0 °F 91.4 °F 68.0 °F 51% 30.05 in 10.0 mi NNW 9.2 mph - N/A   Partly Cloudy
11:52 AM 91.9 °F 95.4 °F 66.9 °F 44% 30.04 in 10.0 mi WNW 8.1 mph - N/A   Partly Cloudy
12:52 PM 95.0 °F 97.0 °F 64.0 °F 36% 30.03 in 10.0 mi North 8.1 mph - N/A   Partly Cloudy
1:52 PM 93.9 °F 94.8 °F 62.1 °F 35% 30.01 in 10.0 mi Variable 4.6 mph - N/A   Scattered Clouds
2:52 PM 96.1 °F 96.9 °F 62.1 °F 32% 29.99 in 10.0 mi NE 4.6 mph - N/A   Partly Cloudy
3:52 PM 96.1 °F 96.4 °F 61.0 °F 31% 29.98 in 10.0 mi NW 9.2 mph - N/A   Partly Cloudy
4:52 PM 96.1 °F 96.0 °F 60.1 °F 30% 29.97 in 10.0 mi North 8.1 mph - N/A   Partly Cloudy
5:52 PM 96.1 °F 96.0 °F 60.1 °F 30% 29.96 in 10.0 mi North 9.2 mph - N/A   Partly Cloudy
6:52 PM 95.0 °F 94.4 °F 59.0 °F 30% 29.97 in 10.0 mi North 9.2 mph - N/A   Partly Cloudy
7:52 PM 93.0 °F 92.7 °F 60.1 °F 33% 29.98 in 10.0 mi North 8.1 mph - N/A   Partly Cloudy
8:52 PM 91.9 °F 91.5 °F 60.1 °F 34% 29.99 in 10.0 mi North 8.1 mph - N/A   Partly Cloudy
9:52 PM 91.0 °F 90.9 °F 61.0 °F 36% 30.00 in 10.0 mi North 9.2 mph - N/A   Partly Cloudy
10:52 PM 91.0 °F 90.2 °F 59.0 °F 34% 30.01 in 10.0 mi NNE 10.4 mph - N/A   Partly Cloudy
11:52 PM 84.0 °F 84.5 °F 62.1 °F 47% 30.01 in 10.0 mi NE 4.6 mph - N/A   Partly Cloudy